Weather History for KGSP - July, 2013

Change the Weather History Date:

Tuesday, July 2, 2013

  Actual Average Record
Temperature  
Mean Temperature 75 °F 79 °F  
Max Temperature 81 °F 90 °F 101 °F (1954)
Min Temperature 69 °F 69 °F 53 °F (1899)
Degree Days  
Heating Degree Days 0 0  
Month to date heating degree days 0 0  
Since 1 June heating degree days 0 2  
Since 1 July heating degree days 0 0  
Cooling Degree Days 10 14  
Month to date cooling degree days 20 28  
Year to date cooling degree days 529 580  
Since 1 June cooling degree days 367 379  
Growing Degree Days 25 (Base 50)    
Moisture  
Dew Point 70 °F    
Average Humidity 87    
Maximum Humidity 100    
Minimum Humidity 74    
Precipitation  
Precipitation 0.46 in 0.14 in 2.07 in (1923)
Month to date precipitation 2.08 0.28  
Year to date precipitation 34.67 23.51  
Snow  
Snow 0.00 in 0.00 in 0.00 in ()
Month to date snowfall 0.0 0.0  
Since 1 June snowfall 0.0 0.0  
Since 1 July snowfall 0.0 0.0  
Snow Depth -    
Sea Level Pressure  
Sea Level Pressure 30.04 in    
Wind  
Wind Speed 7 mph (SSE)    
Max Wind Speed 16 mph    
Max Gust Speed 21 mph    
Visibility 8 miles    
Events Fog , Rain    
T = Trace of Precipitation, MM = Missing Value Source: NWS Daily Summary

Daily Weather History Graph

Daily Weather History Graph

Search for Another Location

Airport or City:

Trip Planner

Search our weather history database for the weather conditions in past years. The results will help you decide how hot, cold, wet, or windy it might be!

Date:

Astronomy

Jul. 02, 2013 Rise Set
Actual Time 6:19 AM EDT 8:46 PM EDT
Civil Twilight 5:49 AM EDT 9:15 PM EDT
Nautical Twilight 5:13 AM EDT 9:52 PM EDT
Astronomical Twilight 4:33 AM EDT 10:32 PM EDT
Moon 2:14 AM EDT 4:04 PM EDT
Length of Visible Light 15h 25m
Length of Day
14h 26m
Waning Crescent, 26% of the Moon is Illuminated
Jul 2
Waning Crescent
Jul 8
New
Jul 15
First Quarter
Jul 22
Full
Jul 29
Last Quarter

Hourly Weather History & Observations

Time (EDT) Temp. Heat Index Dew Point Humidity Pressure Visibility Wind Dir Wind Speed Gust Speed Precip Events Conditions
12:53 AM 70.0 °F - 69.1 °F 97% 29.95 in 9.0 mi Calm Calm - 0.01 in Rain Light Rain
1:53 AM 69.1 °F - 68.0 °F 96% 29.95 in 6.0 mi Calm Calm - 0.00 in   Mostly Cloudy
2:03 AM 69.8 °F - 69.8 °F 100% 29.98 in 7.0 mi Calm Calm - N/A   Mostly Cloudy
2:19 AM 69.8 °F - 69.8 °F 100% 29.98 in 6.0 mi Calm Calm - N/A   Overcast
2:53 AM 70.0 °F - 69.1 °F 97% 29.94 in 7.0 mi Calm Calm - 0.00 in   Overcast
3:53 AM 70.0 °F - 68.0 °F 93% 29.94 in 9.0 mi Calm Calm - N/A   Overcast
4:47 AM 69.8 °F - 69.8 °F 100% 29.98 in 1.5 mi Calm Calm - 0.00 in Rain Heavy Rain
4:53 AM 70.0 °F - 69.1 °F 97% 29.95 in 1.0 mi South 3.5 mph - 0.12 in Rain Heavy Rain
4:57 AM 69.8 °F - 69.8 °F 100% 29.98 in 1.5 mi South 4.6 mph - 0.01 in Rain Light Rain
4:59 AM 69.8 °F - 69.8 °F 100% 29.98 in 3.0 mi SSE 4.6 mph - 0.01 in Rain Light Rain
5:48 AM 71.6 °F - 69.8 °F 94% 30.00 in 7.0 mi SSW 5.8 mph - 0.01 in   Overcast
5:53 AM 71.1 °F - 70.0 °F 96% 29.96 in 7.0 mi South 6.9 mph - 0.01 in   Overcast
6:53 AM 72.0 °F - 71.1 °F 97% 29.98 in 6.0 mi South 6.9 mph - N/A   Overcast
7:53 AM 72.0 °F - 71.1 °F 97% 30.00 in 9.0 mi South 10.4 mph - N/A   Overcast
8:06 AM 71.6 °F - 71.6 °F 100% 30.04 in 10.0 mi South 11.5 mph - N/A   Overcast
8:53 AM 73.0 °F - 70.0 °F 90% 30.02 in 10.0 mi South 8.1 mph - N/A   Overcast
10:51 AM 77.0 °F - 69.8 °F 78% 30.06 in 10.0 mi South 8.1 mph - N/A   Overcast
10:53 AM 77.0 °F - 70.0 °F 79% 30.03 in 10.0 mi South 10.4 mph - N/A   Overcast
11:09 AM 73.4 °F - 69.8 °F 88% 30.06 in 2.5 mi South 8.1 mph - 0.01 in Rain Rain
11:47 AM 71.6 °F - 69.8 °F 94% 30.07 in 1.2 mi SW 8.1 mph - 0.08 in Rain Heavy Rain
11:53 AM 71.1 °F - 70.0 °F 96% 30.05 in 0.5 mi SW 10.4 mph - 0.16 in Fog , Rain Heavy Rain
11:55 AM 71.6 °F - 69.8 °F 94% 30.08 in 0.5 mi SW 9.2 mph - 0.04 in Fog , Rain Heavy Rain
12:10 PM 69.8 °F - 69.8 °F 100% 30.07 in 1.5 mi SW 5.8 mph 16.1 mph 0.17 in Rain Light Rain
12:14 PM 71.6 °F - 69.8 °F 94% 30.07 in 3.0 mi WSW 5.8 mph - 0.17 in Rain Light Rain
12:34 PM 73.4 °F - 69.8 °F 88% 30.07 in 10.0 mi SSW 5.8 mph - 0.17 in   Overcast
12:53 PM 73.9 °F - 71.1 °F 91% 30.04 in 10.0 mi South 6.9 mph - 0.17 in   Overcast
1:03 PM 73.4 °F - 71.6 °F 94% 30.07 in 6.0 mi SSE 8.1 mph - 0.00 in Rain Light Rain
1:05 PM 73.4 °F - 71.6 °F 94% 30.07 in 6.0 mi SSE 8.1 mph - 0.00 in Rain Light Rain
1:32 PM 73.4 °F - 71.6 °F 94% 30.07 in 9.0 mi SSE 9.2 mph - 0.00 in   Overcast
1:53 PM 75.9 °F - 72.0 °F 87% 30.04 in 10.0 mi South 9.2 mph - 0.00 in   Overcast
2:53 PM 78.1 °F - 71.1 °F 79% 30.03 in 10.0 mi South 10.4 mph - N/A   Mostly Cloudy
3:26 PM 78.8 °F - 71.6 °F 78% 30.06 in 10.0 mi SE 10.4 mph - N/A   Scattered Clouds
3:53 PM 80.1 °F 83.6 °F 71.1 °F 74% 30.03 in 10.0 mi SSE 10.4 mph - N/A   Clear
4:53 PM 81.0 °F 84.9 °F 71.1 °F 72% 30.02 in 10.0 mi SE 9.2 mph - N/A   Mostly Cloudy
5:53 PM 80.1 °F 83.6 °F 71.1 °F 74% 30.02 in 10.0 mi SSE 8.1 mph - N/A   Mostly Cloudy
6:53 PM 77.0 °F - 71.1 °F 82% 30.04 in 10.0 mi SE 10.4 mph - N/A   Scattered Clouds
7:53 PM 75.9 °F - 71.1 °F 85% 30.06 in 10.0 mi SE 9.2 mph - N/A   Scattered Clouds
8:33 PM 73.4 °F - 69.8 °F 88% 30.11 in 10.0 mi SE 5.8 mph - N/A   Mostly Cloudy
8:45 PM 73.4 °F - 69.8 °F 88% 30.11 in 10.0 mi SE 6.9 mph - N/A   Mostly Cloudy
8:53 PM 73.9 °F - 70.0 °F 87% 30.08 in 10.0 mi ESE 8.1 mph - N/A   Mostly Cloudy
9:53 PM 73.0 °F - 70.0 °F 90% 30.09 in 10.0 mi SE 4.6 mph - N/A   Overcast
10:03 PM 73.4 °F - 71.6 °F 94% 30.13 in 10.0 mi SE 3.5 mph - N/A   Overcast
10:10 PM 73.4 °F - 69.8 °F 88% 30.13 in 10.0 mi ESE 4.6 mph - N/A   Overcast
10:53 PM 73.0 °F - 70.0 °F 90% 30.11 in 10.0 mi SE 4.6 mph - N/A   Overcast
11:42 PM 73.4 °F - 69.8 °F 88% 30.15 in 10.0 mi SE 5.8 mph - N/A   Overcast
11:53 PM 73.0 °F - 70.0 °F 90% 30.12 in 10.0 mi ESE 5.8 mph - N/A   Overcast